STARLINK-1490 (45777 NORAD) Tracking and Keplerian Element Data

This shows tracking and keplerian element data for the satellite.

Feedback or suggestion? Click here.




ElementValue
Catalog45777
NameSTARLINK-1490
Epoch Orbit463
Epoch Day186.50001157
Epoch Year2020
RAAN192.6349
Inclination52.9987
Eccentricity0.0001048
Argument of Perigee80.7009
Mean Anonmoly161.6911
Mean Motion15.62758872
Decay Rate0.00052712
L11 45777U 20038AZ 20186.50001157 .00052712 00000-0 57763-3 0 9997
L22 45777 52.9987 192.6349 0001048 80.7009 161.6911 15.62758872 4632

Live tracking and technical data element details for STARLINK-1490 (NORAD 45777). STARLINK-1490 can be tracked NOW for your location showing map with azimuth and elevation plus other details from your city location.

Track the satellite on the map from your city or location and see movement details for azimuth, elevation, latitude, longitude, range, height, and movement on the map or in text.







IsCatalogInMostPopularTable: catalog: 45777, numindb: 8
Update: records affected: 1



GetName: 45777 STARLINK-1490

Hit Count: updated at: Sun, 05 Jul 2020 17:19:02 GMT